Locarno Airport LSZL

Flugplatz Daten

Name: Locarno Airport

Ident: LSZL

Lat: 46,16080093

Long: 8,878609657

Platzhöhe: 650 ft

IataCode: ZJI

City:

Metar

2021/10/25 19:50
LSZL 251950Z AUTO 00000KT 9999NDV SCT033 08/07 Q1023 RMK

Taf

Gewünschte Webcam nicht vorhanden? Dann fügen Sie eine hinzu. Sie wird dann so schnell wie möglich freigeschaltet
Url: Title: